User: anonymous   Login
Location: Fort Wayne
(41.1310°N, 85.1290°W)
Time: 00:43:31
(UTC-04:00)
Language:

Cosmos 2056 Rocket - Orbit

View from above orbital plane
View from above orbital plane
View from above satellite
View from above satellite

Ground track
Ground track

The orbit data is extracted from the following two-line orbital elements,

1 20433U 90004B   18116.55786216 +.00000005 +00000-0 +10595-4 0  9991
2 20433 074.0343 140.8661 0041256 195.4456 278.3620 14.36027340479900
Epoch (UTC): 26 April 2018 13:23:19
Eccentricity: 0.0041256
inclination: 74.0343°
perigee height: 742 km
apogee height: 801 km
right ascension of ascending node: 140.8661°
argument of perigee: 195.4456°
revolutions per day: 14.36027340
mean anomaly at epoch: 278.3620°
orbit number at epoch: 47990

The dashed part of the orbit path shows where the satellite is in the earth's shadow,  

DLR